Weather History for Ann Arbor, MI

Change the Weather History Date:

Thursday, November 8, 2012

  Actual Average Record
Temperature  
Mean Temperature 34 °F -  
Max Temperature 48 °F 49 °F 66 °F (2011)
Min Temperature 19 °F 31 °F 16 °F (2003)
Degree Days  
Heating Degree Days 32    
Moisture  
Dew Point 24 °F    
Average Humidity 83    
Maximum Humidity 100    
Minimum Humidity 50    
Precipitation  
Precipitation 0.00 in - - ()
Sea Level Pressure  
Sea Level Pressure 30.18 in    
Wind  
Wind Speed 0 mph (West)    
Max Wind Speed 6 mph    
Max Gust Speed -    
Visibility 6 miles    
Events      
Averages and records for this station are not official NWS values.
T = Trace of Precipitation, MM = Missing Value Source: NWS Daily Summary

Daily Weather History Graph

Daily Weather History Graph

Search for Another Location

Airport:

Trip Planner

Search our weather history database for the weather conditions in past years. The results will help you decide how hot, cold, wet, or windy it might be!

Date:

Astronomy

Nov. 08, 2012 Rise Set
Actual Time 7:17 AM EST 5:19 PM EST
Civil Twilight 6:47 AM EST 5:49 PM EST
Nautical Twilight 6:14 AM EST 6:22 PM EST
Astronomical Twilight 5:41 AM EST 6:55 PM EST
Moon 1:05 AM EST (11/8) 2:05 PM EST (11/8)
Length of Visible Light 11h 01m
Length of Day
10h 02m
Waning Crescent, 33% of the Moon is Illuminated
Nov 8
Waning Crescent
Nov 13
New
Nov 20
First Quarter
Nov 28
Full
Dec 6
Last Quarter

Hourly Weather History & Observations

Time (EST) Temp. Windchill Dew Point Humidity Pressure Visibility Wind Dir Wind Speed Gust Speed Precip Events Conditions
12:39 AM 24.8 °F - 24.8 °F 100% 30.15 in 2.5 mi Calm Calm - N/A   Clear
12:48 AM 23.0 °F - 21.2 °F 93% 30.15 in 7.0 mi Calm Calm - N/A   Clear
12:53 AM 23.0 °F - 21.9 °F 96% 30.17 in 7.0 mi Calm Calm - N/A   Clear
1:53 AM 21.0 °F 16.2 °F 19.0 °F 92% 30.17 in 5.0 mi West 3.5 mph - N/A   Clear
2:53 AM 19.0 °F - 16.0 °F 88% 30.17 in 6.0 mi Calm Calm - N/A   Clear
3:53 AM 21.0 °F - 18.0 °F 88% 30.18 in 6.0 mi Calm Calm - N/A   Clear
4:53 AM 21.9 °F - 19.9 °F 92% 30.19 in 3.0 mi Calm Calm - N/A   Clear
5:01 AM 21.2 °F - 21.2 °F 100% 30.17 in 2.0 mi Calm Calm - N/A   Clear
5:31 AM 19.4 °F - 19.4 °F 100% 30.17 in 5.0 mi Calm Calm - N/A   Clear
5:53 AM 21.9 °F - 19.9 °F 92% 30.21 in 4.0 mi Calm Calm - N/A   Clear
5:58 AM 21.2 °F - 19.4 °F 93% 30.18 in 1.8 mi Calm Calm - N/A   Clear
6:08 AM 19.4 °F - 17.6 °F 93% 30.18 in 3.0 mi Calm Calm - N/A   Clear
6:53 AM 19.0 °F - 18.0 °F 96% 30.22 in 5.0 mi Calm Calm - N/A   Clear
7:23 AM 19.4 °F - 17.6 °F 93% 30.19 in 1.8 mi Calm Calm - N/A   Clear
7:53 AM 21.0 °F - 19.0 °F 92% 30.24 in 5.0 mi Calm Calm - N/A   Clear
8:53 AM 33.1 °F - 30.0 °F 89% 30.24 in 5.0 mi Calm Calm - N/A   Clear
9:53 AM 41.0 °F - 30.0 °F 65% 30.25 in 10.0 mi Calm Calm - N/A   Clear
10:53 AM 43.0 °F - 28.0 °F 56% 30.24 in 10.0 mi Calm Calm - N/A   Clear
11:53 AM 46.0 °F - 28.9 °F 51% 30.21 in 10.0 mi Calm Calm - N/A   Clear
12:53 PM 46.9 °F - 28.9 °F 50% 30.20 in 10.0 mi NW 3.5 mph - N/A   Clear
1:53 PM 48.0 °F - 30.0 °F 50% 30.18 in 10.0 mi Variable 3.5 mph - N/A   Clear
2:53 PM 48.0 °F - 30.0 °F 50% 30.17 in 10.0 mi WSW 5.8 mph - N/A   Clear
3:53 PM 48.0 °F - 30.0 °F 50% 30.17 in 10.0 mi Calm Calm - N/A   Clear
4:53 PM 45.0 °F - 28.9 °F 53% 30.17 in 10.0 mi Calm Calm - N/A   Clear
5:53 PM 36.0 °F - 28.0 °F 73% 30.17 in 10.0 mi Calm Calm - N/A   Clear
6:53 PM 32.0 °F - 27.0 °F 82% 30.18 in 10.0 mi Calm Calm - N/A   Clear
7:53 PM 30.9 °F - 27.0 °F 85% 30.18 in 10.0 mi Calm Calm - N/A   Clear
8:53 PM 28.0 °F 24.2 °F 26.1 °F 92% 30.17 in 8.0 mi West 3.5 mph - N/A   Clear
9:53 PM 28.9 °F - 27.0 °F 92% 30.16 in 6.0 mi Calm Calm - N/A   Clear
10:42 PM 24.8 °F - 23.0 °F 93% 30.13 in 2.5 mi Calm Calm - N/A   Clear
10:53 PM 26.1 °F - 24.1 °F 92% 30.16 in 3.0 mi Calm Calm - N/A   Clear
11:25 PM 24.8 °F - 24.8 °F 100% 30.14 in 2.0 mi Calm Calm - N/A   Clear
11:53 PM 25.0 °F - 24.1 °F 96% 30.17 in 1.5 mi Calm Calm - N/A   Clear